Temperature
6 4 4 4 4 5 5 5 5 5 5 4 3 3 3 3 2 2 2 2 2 2 3 3 3 3 3 3 3 3 3 3 3 3 3 4 4 4 4 5 5 5 5 5
4 3 4 4 5 5 5 5 4 4 4 4 3 2 2 2 2 2 2 1 1 2 2 2 2 2 2 2 2 2 2 2 2 3 3 3 3 3 4 4 4 4 4 5
4 4 4 5 4 4 4 4 4 3 3 3 2 2 2 1 1 1 1 1 1 1 1 1 1 2 2 2 2 2 2 2 2 2 2 2 3 3 3 3 4 4 4 4
3 3 4 4 4 4 4 3 3 3 2 1 2 2 2 0 0 0 0 1 1 1 1 1 1 1 1 1 1 1 1 1 1 1 1 2 2 2 2 2 3 3 3 3
3 3 3 3 3 3 3 3 2 2 1 0 0 1 1 0 -0 -1 -1 -0 0 0 1 1 1 1 1 1 1 1 1 1 1 1 1 1 1 1 2 2 2 2 3 3
2 3 3 2 2 3 2 1 1 -0 -0 1 0 0 1 -1 -1 -1 -1 -1 -0 -0 0 0 0 0 0 0 0 0 0 0 0 0 0 0 1 1 1 1 2 2 2 2
2 2 2 2 2 2 1 1 1 1 0 1 0 0 0 -1 -2 -2 -2 -1 -1 -1 -0 -0 -0 -0 -0 -0 -0 -0 -0 -0 -0 -0 -0 -0 -0 0 0 0 1 1 1 1
2 2 1 1 1 1 0 1 2 2 1 0 -1 -1 -1 -2 -2 -1 -1 -1 -1 -1 -1 -1 -1 -1 -1 -1 -1 -1 -1 -1 -1 -1 -1 -1 -1 -1 -0 -0 -0 0 0 1
1 1 0 1 0 1 0 -1 -0 -1 -1 -1 -1 -2 -2 -2 -2 -2 -2 -2 -2 -2 -1 -1 -1 -1 -2 -2 -2 -2 -2 -2 -2 -1 -1 -1 -1 -1 -1 -1 -1 -1 -0 -0
1 0 -0 -0 0 -0 -0 -1 -2 -1 -0 0 -1 -2 -1 -2 -3 -3 -4 -3 -2 -2 -2 -2 -2 -2 -2 -2 -2 -2 -2 -2 -2 -2 -2 -2 -2 -2 -2 -1 -1 -1 -1 -1
-0 -1 -1 -1 -1 -1 -1 -1 -2 -2 -2 -1 -1 -0 -1 -2 -3 -4 -4 -3 -3 -3 -2 -3 -3 -3 -3 -3 -3 -3 -3 -3 -3 -3 -3 -3 -3 -3 -3 -2 -2 -2 -2 -2
-1 -2 -2 -2 -2 -1 -2 -2 -2 -1 -2 -3 -3 -1 -1 -3 -3 -3 -3 -3 -3 -3 -3 -3 -3 -3 -4 -4 -4 -4 -4 -4 -4 -4 -4 -4 -4 -3 -3 -3 -3 -3 -2 -2
-2 -2 -1 -1 -1 -2 -2 -3 -3 -3 -3 -4 -3 -1 -2 -4 -3 -3 -3 -3 -3 -4 -4 -4 -4 -4 -4 -4 -4 -5 -5 -5 -5 -5 -5 -4 -4 -4 -4 -4 -3 -3 -3 -3
-1 -3 -2 -0 -0 -2 -3 -3 -3 -3 -3 -4 -3 -2 -2 -4 -4 -4 -4 -4 -4 -4 -5 -4 -5 -5 -5 -5 -5 -5 -5 -5 -5 -5 -5 -5 -5 -5 -5 -4 -4 -4 -4 -4
-2 -3 -4 -3 -2 -3 -3 -3 -3 -4 -3 -3 -3 -3 -3 -4 -5 -4 -4 -4 -5 -5 -5 -5 -5 -5 -6 -6 -6 -6 -6 -6 -6 -6 -6 -6 -6 -5 -5 -5 -5 -4 -4 -4
-4 -4 -4 -4 -3 -3 -3 -3 -3 -3 -3 -4 -4 -4 -4 -4 -4 -5 -5 -5 -6 -6 -6 -6 -6 -6 -6 -7 -7 -7 -7 -7 -7 -7 -7 -6 -6 -6 -6 -6 -5 -5 -5 -5
-4 -5 -4 -4 -4 -4 -4 -4 -4 -4 -5 -4 -4 -4 -6 -6 -6 -6 -6 -6 -6 -6 -6 -7 -7 -7 -7 -7 -7 -8 -8 -7 -7 -7 -7 -7 -7 -7 -6 -6 -6 -6 -5 -5
-5 -5 -5 -5 -5 -4 -3 -5 -5 -5 -5 -6 -6 -6 -6 -6 -6 -6 -6 -6 -6 -7 -7 -7 -7 -7 -8 -8 -8 -8 -8 -8 -8 -8 -8 -7 -7 -7 -7 -7 -7 -6 -6 -6
-6 -5 -5 -5 -5 -5 -4 -5 -6 -6 -6 -7 -7 -7 -7 -7 -7 -7 -6 -6 -7 -7 -7 -8 -8 -8 -8 -8 -8 -8 -8 -8 -8 -8 -8 -8 -8 -8 -7 -7 -7 -7 -7 -7
-6 -6 -6 -6 -5 -4 -3 -5 -6 -6 -6 -6 -7 -7 -8 -8 -8 -7 -7 -7 -7 -8 -8 -8 -8 -8 -8 -8 -9 -9 -9 -9 -9 -8 -8 -8 -8 -8 -8 -8 -8 -7 -7 -7
-6 -7 -6 -6 -6 -5 -5 -6 -6 -5 -5 -6 -7 -7 -8 -8 -8 -7 -8 -8 -8 -8 -9 -9 -9 -9 -9 -9 -9 -9 -9 -9 -9 -9 -9 -9 -8 -8 -8 -8 -8 -8 -8 -8
-6 -7 -7 -7 -6 -5 -6 -7 -6 -6 -5 -6 -6 -7 -8 -8 -8 -8 -8 -9 -9 -9 -9 -9 -9 -9 -9 -9 -10 -10 -10 -9 -9 -9 -9 -9 -9 -9 -9 -9 -8 -8 -8 -8
-7 -6 -6 -6 -5 -5 -6 -6 -5 -6 -6 -6 -7 -7 -8 -8 -9 -9 -9 -9 -9 -10 -10 -10 -10 -10 -10 -10 -10 -10 -10 -10 -10 -10 -9 -9 -9 -9 -9 -9 -9 -9 -9 -9
-7 -7 -7 -7 -7 -6 -6 -6 -6 -6 -7 -7 -7 -8 -8 -9 -9 -9 -10 -10 -10 -10 -10 -10 -10 -10 -10 -10 -10 -10 -10 -10 -10 -10 -10 -10 -10 -9 -9 -10 -10 -10 -9 -9
-7 -8 -8 -8 -8 -7 -6 -6 -6 -7 -7 -8 -8 -8 -9 -9 -9 -10 -10 -10 -10 -10 -11 -11 -11 -11 -10 -10 -10 -10 -11 -11 -10 -10 -10 -10 -10 -10 -10 -10 -10 -10 -10 -10
-8 -8 -8 -7 -7 -8 -7 -7 -7 -8 -8 -8 -9 -9 -9 -9 -10 -10 -10 -10 -11 -11 -11 -11 -11 -11 -11 -11 -11 -11 -11 -11 -11 -11 -11 -10 -11 -11 -11 -11 -10 -10 -10 -10
Wind_Speed
3 4 1 4 4 3 3 3 5 5 2 2 7 10 8 5 4 5 4 4 5 5 4 2 1 1 1 2 2 2 2 3 2 1 1 2 2 2 3 4 4 3 2 2
4 1 5 3 2 1 2 3 5 5 3 3 6 9 7 4 4 5 5 5 5 3 2 1 1 1 0 1 2 2 2 3 3 2 2 2 2 2 3 4 4 4 3 2
3 3 2 1 1 2 3 4 5 5 5 3 4 7 4 2 1 1 2 4 4 4 4 3 1 1 0 1 1 2 2 3 3 3 2 2 2 2 2 3 3 4 3 2
1 2 1 1 2 2 5 3 3 3 3 4 0 5 6 2 3 3 3 3 3 3 3 2 2 1 2 2 2 2 2 3 3 3 2 1 1 2 3 3 3 5 4 3
2 1 0 2 3 3 4 2 2 1 2 3 2 3 8 1 3 5 4 4 3 2 2 2 2 2 2 2 2 2 2 3 3 3 2 2 2 3 3 3 4 4 4 4
2 1 1 2 1 1 0 2 3 3 2 4 5 5 7 3 5 4 3 3 3 2 1 1 1 0 1 1 1 2 2 3 3 3 3 2 4 4 4 4 4 3 3 4
4 2 1 1 1 2 3 3 3 4 2 6 2 4 7 4 3 3 4 3 2 1 0 0 1 1 1 2 2 2 2 3 4 3 3 3 4 4 4 4 4 3 3 3
2 5 2 1 2 2 1 4 4 4 5 5 2 6 5 3 3 1 1 1 1 1 1 1 1 0 1 2 2 2 3 4 4 4 4 4 4 4 4 4 4 4 4 4
3 5 2 1 1 3 2 2 2 3 1 4 6 6 6 2 3 2 2 1 2 2 2 2 2 1 1 2 2 3 3 4 4 4 4 4 4 4 5 5 4 4 4 4
3 4 3 2 2 2 1 3 3 3 3 5 6 5 4 4 4 2 2 3 3 3 2 2 2 2 2 2 3 3 3 4 4 5 4 5 5 5 5 5 5 4 4 5
2 3 4 2 4 5 2 2 3 2 3 4 5 6 4 5 4 4 4 3 3 3 2 2 2 2 2 2 3 3 4 4 5 5 5 5 5 6 6 5 5 5 4 4
2 3 4 6 3 2 4 5 5 3 5 4 3 7 2 2 2 2 2 2 2 2 2 2 2 2 2 3 3 3 4 4 5 5 5 6 6 6 6 7 6 6 5 5
3 2 3 5 3 1 2 3 3 2 2 4 5 7 2 2 2 2 2 2 2 2 2 3 3 3 3 4 4 4 5 5 5 5 5 6 6 6 7 8 6 6 6 6
3 3 6 8 6 3 4 5 5 5 4 6 9 11 9 6 5 5 3 2 2 2 2 3 3 3 4 4 4 5 5 5 6 6 6 6 6 7 8 8 6 6 6 6
3 4 6 9 8 5 8 9 8 10 10 10 10 10 11 6 6 5 3 3 2 3 3 4 4 4 5 5 5 5 6 6 6 6 7 7 7 7 7 8 7 6 6 7
2 3 2 6 6 7 10 11 11 12 11 12 12 13 7 5 3 4 3 3 3 5 5 5 5 5 6 6 6 6 7 7 6 6 7 7 7 7 8 8 7 7 6 6
3 3 2 5 4 4 7 8 9 6 6 7 10 8 3 4 5 5 4 3 4 5 6 6 5 5 6 6 6 6 7 7 6 7 7 7 7 8 8 8 8 8 7 7
5 4 2 3 3 6 6 1 4 5 5 5 5 5 4 6 7 5 3 3 4 5 6 6 5 6 6 6 6 6 6 6 7 7 8 8 8 8 8 8 8 8 7 7
4 5 3 2 4 8 6 2 2 4 5 4 6 6 4 4 4 4 2 2 4 4 5 5 5 6 6 6 6 6 6 6 7 7 8 8 8 8 9 8 8 8 8 7
2 3 3 3 3 6 5 1 1 2 5 3 3 5 4 2 4 5 2 3 4 4 4 4 5 5 6 6 6 6 7 7 7 8 9 9 8 8 9 9 8 8 7 7
2 2 5 6 6 8 4 1 3 2 6 3 2 4 4 4 6 5 4 4 4 4 4 5 5 5 6 6 5 6 7 7 8 9 9 9 8 8 8 8 7 7 7 7
7 5 6 5 6 8 2 4 5 6 3 2 3 3 4 5 5 5 4 4 4 4 5 5 5 6 6 5 5 6 7 8 9 8 8 8 8 7 7 7 7 7 6 6
7 8 6 8 7 3 4 5 4 2 3 4 3 4 3 4 5 5 4 4 4 5 5 5 5 7 7 6 5 7 8 8 9 8 8 8 8 7 7 7 7 6 5 5
4 2 3 5 7 5 5 4 3 3 4 4 4 4 3 4 5 5 4 5 5 5 5 5 5 7 7 7 7 7 8 8 8 8 8 7 6 7 6 6 6 6 5 5
5 4 3 6 5 5 5 4 3 3 3 3 4 4 4 4 5 5 5 5 5 5 5 5 5 7 8 8 8 8 7 7 7 7 7 6 6 6 6 6 5 6 6 7
3 5 5 6 5 4 6 3 2 3 4 4 4 5 4 4 5 5 5 5 5 5 5 5 6 7 8 7 8 8 7 6 6 6 6 5 5 5 5 6 7 9 9 11
Wind_Direction
35 69 166 231 215 213 196 222 260 262 289 273 250 263 269 255 238 237 231 222 225 233 247 231 191 127 55 23 20 354 350 343 352 334 327 323 311 311 326 327 325 323 327 349
45 284 249 248 248 215 227 253 272 286 309 271 276 276 277 254 231 233 224 224 232 248 265 239 190 130 82 5 349 342 347 337 331 318 298 281 277 282 306 316 320 321 323 327
174 245 277 217 288 242 248 226 250 272 315 315 312 300 273 278 233 241 231 229 231 217 215 215 211 200 119 309 304 315 323 325 331 333 329 331 320 320 326 323 314 320 313 305
228 281 300 247 252 207 256 241 253 273 314 292 358 288 283 264 293 276 261 254 247 236 213 207 200 237 234 248 272 297 309 321 329 340 336 298 295 298 298 290 294 309 307 301
269 271 229 241 251 211 235 301 283 254 204 297 268 231 283 312 278 275 272 271 273 250 215 211 214 228 246 249 262 287 306 320 329 333 324 296 276 278 296 296 292 299 308 303
262 298 219 231 302 216 248 28 35 49 79 279 229 201 275 249 247 268 270 270 275 281 276 256 249 257 306 294 302 310 315 319 325 324 317 304 287 290 305 309 296 300 297 304
318 302 330 45 35 19 56 69 6 344 333 256 221 212 254 265 253 233 244 253 270 284 294 342 321 344 339 341 320 312 313 311 314 314 310 303 291 281 275 281 281 292 291 291
295 291 265 281 189 196 203 149 172 233 250 283 298 236 255 286 304 297 253 256 310 314 286 277 279 255 323 337 334 322 312 305 310 310 307 300 291 282 277 278 277 274 274 274
212 264 340 27 360 151 158 197 181 166 270 278 270 284 298 298 333 357 359 346 305 299 303 301 311 321 331 331 324 318 320 315 315 315 319 319 316 305 294 293 289 278 283 287
180 266 285 322 26 360 157 149 111 157 233 264 279 271 262 273 275 282 283 284 286 297 309 317 324 322 325 326 333 337 335 326 320 318 319 328 326 314 299 295 291 286 286 290
148 209 295 321 216 214 163 170 174 187 204 214 271 270 235 225 221 222 237 258 279 293 289 304 321 327 335 349 351 343 335 330 330 325 320 321 319 318 307 293 291 288 288 291
147 155 259 253 254 239 193 193 167 194 241 219 240 269 285 211 219 209 238 271 300 299 299 316 330 342 349 345 339 333 325 325 323 322 319 315 314 316 311 298 294 296 291 289
147 146 310 322 322 350 252 221 193 172 178 205 221 262 339 5 335 299 266 284 305 312 332 342 342 338 333 329 329 325 320 319 320 319 315 317 313 310 306 297 298 300 296 291
143 184 209 234 253 218 252 253 216 183 215 235 233 255 283 303 306 303 295 280 285 298 317 330 327 323 323 323 324 320 317 315 316 316 314 311 308 304 303 299 298 296 295 289
148 224 241 259 270 255 249 251 228 219 224 234 249 252 270 279 273 273 278 293 309 315 321 322 317 315 319 321 321 318 315 316 316 314 310 305 304 305 305 300 293 294 294 292
173 224 253 274 266 261 266 260 241 236 239 243 257 268 276 288 288 291 287 286 293 300 303 311 316 319 314 312 313 316 314 313 312 306 304 306 307 308 307 302 299 298 293 289
195 183 217 267 305 324 272 249 228 225 224 219 242 256 295 308 298 280 268 269 287 297 302 304 307 303 302 302 304 304 304 309 309 305 304 306 306 305 305 307 306 298 291 289
179 173 202 271 352 259 245 207 203 220 245 225 244 275 283 277 288 272 241 243 285 301 302 301 304 307 306 304 303 303 305 307 309 307 305 306 306 306 307 303 301 300 294 286
172 169 190 216 257 272 281 259 200 211 254 229 246 272 290 311 313 278 249 256 269 281 287 290 296 299 303 304 303 306 307 309 310 308 306 305 303 304 305 300 300 298 296 288
107 141 176 203 237 254 257 251 219 136 264 270 245 261 280 327 303 277 282 306 303 301 297 301 306 306 309 310 311 308 308 309 306 305 303 301 300 300 299 296 296 297 294 292
165 186 208 221 238 262 253 229 109 172 267 297 252 250 242 236 248 278 302 304 297 297 302 307 309 307 308 312 315 307 306 302 302 303 304 304 301 297 294 294 294 295 296 296
186 189 206 197 225 256 188 140 185 232 275 279 269 254 246 262 276 279 286 292 301 306 308 308 309 308 309 310 310 305 302 303 306 306 306 305 303 300 302 300 299 297 295 294
205 199 199 203 223 252 181 199 226 230 263 272 268 272 260 273 277 284 287 290 294 297 300 304 301 305 308 308 301 297 300 305 308 308 307 306 305 304 305 302 300 299 291 289
246 209 207 246 256 257 245 245 261 250 251 265 267 268 262 266 274 282 288 293 294 296 298 302 301 302 305 308 305 296 300 305 306 305 305 305 305 306 306 303 299 297 292 290
226 189 220 253 271 294 268 244 253 277 278 283 286 273 260 258 270 271 278 283 287 295 297 297 295 295 299 306 305 304 307 309 306 304 303 305 305 303 306 305 297 298 287 289
207 196 209 245 239 234 264 265 273 274 281 278 282 291 283 260 263 272 277 279 283 289 295 297 295 297 299 302 303 303 304 303 303 308 310 308 310 308 307 309 311 310 311 312
Height
1519 1524 1528 1527 1526 1524 1525 1527 1526 1523 1521 1522 1520 1517 1514 1514 1513 1513 1512 1512 1512 1511 1512 1513 1513 1513 1513 1513 1513 1513 1512 1512 1511 1510 1510 1509 1509 1510 1510 1509 1509 1509 1509 1509
1525 1528 1525 1524 1524 1524 1525 1526 1526 1523 1521 1521 1519 1516 1512 1511 1510 1509 1510 1509 1509 1509 1509 1509 1510 1510 1510 1510 1510 1510 1509 1509 1508 1508 1508 1507 1507 1506 1506 1506 1505 1505 1506 1506
1526 1527 1524 1524 1525 1525 1526 1527 1526 1525 1523 1521 1522 1515 1511 1509 1508 1508 1507 1507 1507 1506 1506 1506 1506 1507 1507 1507 1507 1507 1507 1506 1506 1505 1505 1504 1503 1503 1503 1502 1502 1502 1503 1502
1527 1525 1524 1524 1525 1525 1525 1524 1524 1525 1528 1528 1526 1523 1510 1509 1508 1506 1506 1505 1504 1504 1504 1504 1504 1504 1504 1505 1505 1505 1504 1504 1503 1503 1502 1501 1500 1498 1498 1498 1498 1499 1499 1499
1527 1526 1525 1525 1524 1524 1525 1524 1525 1525 1528 1532 1528 1529 1513 1510 1509 1506 1505 1503 1502 1502 1501 1501 1502 1502 1502 1502 1502 1502 1502 1501 1500 1500 1499 1498 1497 1496 1495 1495 1495 1495 1495 1496
1527 1526 1525 1525 1524 1524 1524 1526 1527 1530 1532 1531 1526 1528 1514 1512 1507 1504 1502 1501 1500 1500 1500 1500 1500 1501 1500 1500 1500 1499 1499 1498 1498 1497 1496 1495 1494 1493 1491 1491 1490 1490 1491 1491
1528 1526 1525 1525 1525 1525 1526 1530 1532 1532 1535 1527 1524 1523 1514 1506 1503 1501 1500 1499 1499 1499 1499 1498 1498 1498 1498 1497 1497 1496 1496 1495 1494 1493 1492 1491 1490 1489 1488 1487 1487 1486 1486 1486
1532 1529 1527 1526 1526 1527 1528 1529 1532 1532 1531 1527 1525 1521 1510 1505 1502 1500 1500 1499 1498 1498 1498 1497 1497 1496 1496 1495 1495 1494 1493 1492 1491 1490 1489 1488 1487 1486 1485 1484 1483 1482 1482 1482
1533 1529 1528 1526 1526 1526 1528 1532 1531 1535 1538 1538 1526 1521 1510 1504 1501 1500 1500 1499 1498 1498 1497 1496 1495 1495 1494 1493 1492 1491 1490 1489 1488 1486 1485 1484 1483 1482 1481 1480 1479 1478 1477 1477
1531 1533 1529 1528 1527 1527 1528 1530 1535 1535 1532 1528 1523 1523 1513 1505 1503 1502 1501 1499 1498 1497 1496 1495 1494 1494 1493 1492 1491 1489 1488 1486 1485 1483 1481 1480 1479 1478 1477 1476 1474 1473 1473 1472
1530 1535 1532 1530 1529 1528 1530 1531 1532 1534 1534 1531 1525 1515 1503 1501 1499 1500 1500 1499 1498 1496 1495 1493 1493 1492 1491 1490 1488 1487 1485 1483 1481 1479 1478 1476 1475 1474 1473 1471 1469 1468 1468 1467
1531 1535 1535 1530 1526 1526 1526 1527 1531 1531 1531 1534 1530 1515 1498 1499 1498 1498 1498 1498 1497 1495 1494 1493 1492 1491 1489 1487 1485 1484 1482 1480 1478 1475 1474 1472 1471 1469 1468 1466 1465 1463 1462 1462
1530 1534 1534 1527 1529 1529 1527 1526 1528 1529 1531 1533 1528 1512 1499 1499 1498 1498 1497 1496 1495 1494 1493 1491 1490 1488 1487 1485 1483 1481 1479 1476 1474 1472 1470 1468 1467 1465 1464 1462 1459 1458 1457 1456
1527 1532 1531 1525 1518 1523 1526 1525 1525 1527 1528 1526 1519 1506 1500 1499 1499 1497 1496 1495 1494 1493 1491 1489 1488 1486 1484 1482 1480 1478 1476 1473 1471 1469 1466 1464 1462 1461 1459 1457 1455 1454 1452 1451
1525 1529 1528 1523 1520 1521 1520 1518 1519 1520 1516 1515 1506 1505 1498 1498 1497 1496 1494 1493 1492 1491 1489 1487 1486 1484 1482 1479 1477 1475 1472 1470 1467 1465 1462 1460 1458 1456 1454 1452 1450 1448 1447 1446
1524 1527 1527 1524 1518 1518 1515 1511 1511 1511 1509 1507 1504 1500 1496 1496 1495 1493 1492 1491 1490 1489 1487 1485 1483 1481 1478 1476 1474 1471 1469 1466 1464 1461 1459 1456 1454 1452 1451 1448 1445 1443 1442 1441
1524 1526 1526 1523 1520 1517 1514 1505 1504 1504 1502 1502 1500 1497 1495 1494 1492 1490 1489 1488 1487 1486 1484 1482 1480 1478 1476 1473 1471 1468 1465 1463 1460 1458 1455 1453 1451 1448 1446 1443 1441 1438 1437 1436
1522 1523 1525 1524 1523 1519 1502 1500 1500 1501 1499 1499 1497 1494 1493 1492 1490 1488 1487 1486 1484 1483 1481 1479 1477 1474 1472 1470 1467 1465 1462 1459 1456 1454 1451 1449 1446 1444 1441 1439 1436 1434 1432 1431
1517 1520 1523 1524 1523 1512 1501 1498 1499 1500 1497 1494 1494 1492 1491 1490 1487 1485 1484 1483 1482 1480 1478 1476 1474 1471 1469 1467 1464 1461 1458 1455 1452 1449 1447 1445 1442 1439 1437 1434 1432 1430 1427 1425
1517 1518 1522 1522 1519 1510 1497 1496 1495 1497 1495 1490 1489 1489 1488 1488 1488 1483 1481 1480 1478 1477 1475 1473 1470 1468 1466 1463 1460 1457 1454 1451 1448 1445 1443 1441 1438 1435 1433 1430 1427 1425 1423 1421
1519 1521 1521 1520 1516 1503 1495 1494 1495 1500 1491 1487 1486 1485 1485 1484 1483 1480 1478 1476 1475 1473 1471 1469 1466 1464 1462 1459 1456 1453 1450 1447 1444 1441 1439 1436 1434 1431 1429 1426 1424 1421 1420 1417
1512 1516 1517 1516 1514 1502 1492 1493 1494 1490 1486 1484 1483 1482 1481 1480 1478 1476 1474 1472 1471 1469 1467 1465 1463 1460 1458 1456 1453 1449 1446 1443 1440 1437 1434 1432 1429 1427 1424 1422 1420 1418 1416 1413
1504 1502 1501 1501 1495 1489 1487 1486 1485 1485 1483 1482 1480 1479 1478 1476 1474 1472 1470 1469 1467 1466 1464 1462 1459 1456 1454 1452 1449 1445 1442 1439 1436 1433 1430 1428 1425 1423 1420 1418 1416 1414 1412 1409
1498 1496 1497 1495 1488 1485 1484 1483 1482 1482 1480 1479 1478 1476 1474 1472 1470 1469 1467 1466 1464 1462 1460 1458 1456 1453 1450 1448 1445 1442 1438 1435 1432 1428 1426 1423 1421 1418 1417 1414 1412 1410 1408 1405
1492 1494 1493 1490 1485 1483 1481 1480 1479 1478 1477 1476 1474 1473 1471 1469 1467 1466 1464 1462 1461 1459 1457 1455 1452 1449 1446 1443 1440 1438 1435 1431 1428 1425 1422 1419 1417 1415 1413 1411 1409 1406 1404 1402
1488 1489 1489 1484 1481 1481 1478 1477 1476 1475 1473 1472 1470 1468 1467 1466 1464 1462 1460 1459 1457 1455 1453 1451 1448 1446 1443 1440 1437 1434 1431 1428 1425 1421 1418 1416 1413 1411 1409 1407 1405 1403 1401 1399